When you browse on this site, cookies collect data to enhance your experience and personalize the content and advertising you see.
Visit our Privacy Policy to learn more. By continuing to use the site, you agree to this use of cookies and data.
  • In Hungary
  • List of Countries
  • For 7 days
  • Water Temperature
  • Satellite Maps
  • Weather Map
  • News
  • Weather Widgets
  • user-avatar
    Login

    Hourly Weather Raszowka

    Today, 26 May, Sunday

    Time Temperature Precipitation Wind Pressure Humidity
    00:00 +10°C° 0 mm 2 mps 747 mmHg 90%
    01:00 +10°C° 0 mm 1 mps 747 mmHg 93%
    02:00 +10°C° 0 mm 1 mps 747 mmHg 93%
    03:00 +10°C° 0 mm 1 mps 747 mmHg 94%
    04:00 +8°C° 0 mm 2 mps 747 mmHg 95%
    05:00 +10°C° 0 mm 2 mps 747 mmHg 89%
    06:00 +13°C° 0 mm 2 mps 747 mmHg 84%
    07:00 +13°C° 0 mm 3 mps 747 mmHg 76%
    08:00 +16°C° 0 mm 3 mps 747 mmHg 70%
    09:00 +17°C° 0 mm 3 mps 747 mmHg 64%
    10:00 +19°C° 0 mm 4 mps 747 mmHg 58%
    11:00 +20°C° 0 mm 4 mps 746 mmHg 55%
    12:00 +21°C° 0 mm 5 mps 746 mmHg 53%
    13:00 +22°C° 0 mm 5 mps 746 mmHg 50%
    14:00 +22°C° 0 mm 5 mps 745 mmHg 51%
    15:00 +22°C° 0 mm 5 mps 745 mmHg 51%
    16:00 +22°C° 0 mm 5 mps 745 mmHg 52%
    17:00 +21°C° 0 mm 4 mps 745 mmHg 58%
    18:00 +20°C° 0 mm 3 mps 744 mmHg 64%
    19:00 +19°C° 0 mm 2 mps 744 mmHg 71%
    20:00 +17°C° 0 mm 2 mps 744 mmHg 74%
    21:00 +16°C° 0 mm 2 mps 744 mmHg 77%
    22:00 +15°C° 0 mm 2 mps 745 mmHg 80%
    23:00 +15°C° 0 mm 2 mps 744 mmHg 81%

    Tomorrow, 27 May, Monday

    Time Temperature Precipitation Wind Pressure Humidity
    00:00 +13°C° 0 mm 3 mps 744 mmHg 82%
    01:00 +13°C° 0 mm 3 mps 744 mmHg 82%
    02:00 +13°C° 0 mm 3 mps 744 mmHg 83%
    03:00 +13°C° 0 mm 3 mps 743 mmHg 84%
    04:00 +13°C° 0 mm 3 mps 743 mmHg 85%
    05:00 +14°C° 0 mm 3 mps 743 mmHg 80%
    06:00 +17°C° 0 mm 3 mps 743 mmHg 74%
    07:00 +19°C° 0 mm 4 mps 743 mmHg 69%
    08:00 +20°C° 0 mm 4 mps 743 mmHg 64%
    09:00 +21°C° 0 mm 4 mps 743 mmHg 58%
    10:00 +23°C° 0 mm 4 mps 743 mmHg 53%
    11:00 +23°C° 0 mm 4 mps 743 mmHg 51%
    12:00 +25°C° 0 mm 4 mps 743 mmHg 49%
    13:00 +26°C° 0 mm 4 mps 742 mmHg 47%
    14:00 +26°C° 0 mm 3 mps 742 mmHg 48%
    15:00 +26°C° 0 mm 3 mps 742 mmHg 49%
    16:00 +26°C° 0 mm 3 mps 742 mmHg 49%
    17:00 +24°C° 0.2 mm 3 mps 742 mmHg 60%
    18:00 +21°C° 0.2 mm 3 mps 741 mmHg 71%
    19:00 +19°C° 0.2 mm 3 mps 741 mmHg 82%
    20:00 +18°C° 0.1 mm 2 mps 741 mmHg 84%
    21:00 +18°C° 0.1 mm 1 mps 741 mmHg 87%
    22:00 +16°C° 0.1 mm 1 mps 741 mmHg 90%
    23:00 +16°C° 0.3 mm 1 mps 741 mmHg 91%

    Day after tomorrow, 28 May, Tuesday

    Time Temperature Precipitation Wind Pressure Humidity
    00:00 +15°C° 0.3 mm 0 mps 741 mmHg 92%
    01:00 +15°C° 0.3 mm 0 mps 740 mmHg 93%
    02:00 +15°C° 2 mm 0 mps 740 mmHg 95%
    03:00 +15°C° 2 mm 1 mps 740 mmHg 96%
    04:00 +15°C° 2 mm 1 mps 739 mmHg 97%
    05:00 +15°C° 3.3 mm 2 mps 739 mmHg 97%
    06:00 +15°C° 3.3 mm 2 mps 739 mmHg 97%
    07:00 +14°C° 3.3 mm 3 mps 739 mmHg 98%
    08:00 +14°C° 2.7 mm 3 mps 739 mmHg 97%
    09:00 +13°C° 2.7 mm 4 mps 739 mmHg 97%
    10:00 +13°C° 2.7 mm 5 mps 739 mmHg 96%
    11:00 +13°C° 2.4 mm 5 mps 739 mmHg 96%
    12:00 +11°C° 2.4 mm 6 mps 739 mmHg 96%
    13:00 +11°C° 2.4 mm 6 mps 739 mmHg 95%
    14:00 +10°C° 1.7 mm 6 mps 739 mmHg 95%
    15:00 +10°C° 1.7 mm 6 mps 740 mmHg 95%
    16:00 +10°C° 1.7 mm 5 mps 740 mmHg 95%
    17:00 +10°C° 0.8 mm 5 mps 740 mmHg 95%
    18:00 +10°C° 0.8 mm 4 mps 741 mmHg 95%
    19:00 +10°C° 0.8 mm 3 mps 741 mmHg 95%
    20:00 +10°C° 0 mm 3 mps 741 mmHg 96%
    21:00 +10°C° 0 mm 3 mps 742 mmHg 96%
    22:00 +9°C° 0 mm 3 mps 742 mmHg 96%
    23:00 +9°C° 0 mm 3 mps 742 mmHg 97%

    29 May, Wednesday

    Time Temperature Precipitation Wind Pressure Humidity
    00:00 +9°C° 0 mm 2 mps 743 mmHg 97%
    01:00 +8°C° 0 mm 2 mps 743 mmHg 97%
    02:00 +8°C° 0 mm 2 mps 743 mmHg 97%
    03:00 +8°C° 0 mm 2 mps 744 mmHg 97%
    04:00 +8°C° 0 mm 2 mps 744 mmHg 96%
    05:00 +8°C° 0 mm 2 mps 744 mmHg 93%
    06:00 +9°C° 0 mm 3 mps 745 mmHg 90%
    07:00 +9°C° 0 mm 3 mps 745 mmHg 87%
    08:00 +10°C° 0 mm 3 mps 746 mmHg 82%
    09:00 +11°C° 0 mm 3 mps 746 mmHg 77%
    10:00 +12°C° 0 mm 3 mps 746 mmHg 72%
    11:00 +14°C° 0 mm 3 mps 747 mmHg 68%
    12:00 +16°C° 0 mm 3 mps 747 mmHg 64%
    13:00 +17°C° 0 mm 4 mps 747 mmHg 60%
    14:00 +17°C° 0 mm 3 mps 748 mmHg 60%
    15:00 +17°C° 0 mm 3 mps 748 mmHg 61%
    16:00 +17°C° 0 mm 3 mps 748 mmHg 61%
    17:00 +16°C° 0 mm 3 mps 748 mmHg 66%
    18:00 +14°C° 0 mm 3 mps 749 mmHg 70%
    19:00 +13°C° 0 mm 3 mps 749 mmHg 75%
    20:00 +12°C° 0 mm 3 mps 750 mmHg 75%
    21:00 +12°C° 0 mm 2 mps 751 mmHg 75%
    22:00 +9°C° 0 mm 2 mps 751 mmHg 76%
    23:00 +8°C° 0 mm 2 mps 751 mmHg 76%

    30 May, Thursday

    Time Temperature Precipitation Wind Pressure Humidity
    00:00 +8°C° 0 mm 2 mps 752 mmHg 77%
    01:00 +7°C° 0 mm 2 mps 752 mmHg 77%
    02:00 +6°C° 0 mm 2 mps 752 mmHg 79%
    03:00 +7°C° 0 mm 1 mps 752 mmHg 82%
    04:00 +6°C° 0 mm 1 mps 753 mmHg 84%
    05:00 +7°C° 0 mm 1 mps 753 mmHg 79%
    06:00 +9°C° 0 mm 1 mps 753 mmHg 73%
    07:00 +11°C° 0 mm 1 mps 754 mmHg 67%
    08:00 +12°C° 0 mm 1 mps 754 mmHg 61%
    09:00 +14°C° 0 mm 1 mps 754 mmHg 55%
    10:00 +15°C° 0 mm 2 mps 754 mmHg 49%
    11:00 +18°C° 0 mm 1 mps 753 mmHg 47%
    12:00 +19°C° 0 mm 1 mps 753 mmHg 46%
    13:00 +18°C° 0 mm 0 mps 753 mmHg 44%
    14:00 +18°C° 0 mm 0 mps 752 mmHg 44%
    15:00 +18°C° 0 mm 0 mps 752 mmHg 43%
    16:00 +18°C° 0 mm 0 mps 752 mmHg 43%
    17:00 +19°C° 0 mm 1 mps 752 mmHg 50%
    18:00 +17°C° 0 mm 2 mps 751 mmHg 58%
    19:00 +16°C° 0 mm 2 mps 751 mmHg 65%
    20:00 +14°C° 0 mm 2 mps 751 mmHg 67%
    21:00 +12°C° 0 mm 3 mps 751 mmHg 68%
    22:00 +11°C° 0 mm 3 mps 751 mmHg 70%
    23:00 +11°C° 0 mm 3 mps 751 mmHg 71%

    31 May, Friday

    Time Temperature Precipitation Wind Pressure Humidity
    00:00 +11°C° 0 mm 3 mps 750 mmHg 72%
    01:00 +11°C° 0 mm 3 mps 750 mmHg 73%
    02:00 +11°C° 0 mm 3 mps 750 mmHg 72%
    03:00 +11°C° 0 mm 3 mps 749 mmHg 72%
    04:00 +12°C° 0 mm 3 mps 749 mmHg 72%
    05:00 +12°C° 0 mm 3 mps 749 mmHg 76%
    06:00 +13°C° 0 mm 3 mps 749 mmHg 79%
    07:00 +14°C° 0 mm 3 mps 749 mmHg 83%
    08:00 +14°C° 0.4 mm 4 mps 749 mmHg 85%
    09:00 +14°C° 0.4 mm 4 mps 749 mmHg 87%
    10:00 +15°C° 0.4 mm 5 mps 749 mmHg 89%
    11:00 +14°C° 1.2 mm 5 mps 750 mmHg 88%
    12:00 +12°C° 1.2 mm 5 mps 750 mmHg 88%
    13:00 +11°C° 1.2 mm 4 mps 751 mmHg 87%
    14:00 +13°C° 0.1 mm 4 mps 751 mmHg 78%
    15:00 +14°C° 0.1 mm 4 mps 752 mmHg 69%
    16:00 +15°C° 0.1 mm 4 mps 753 mmHg 60%
    17:00 +14°C° 0 mm 4 mps 753 mmHg 62%
    18:00 +13°C° 0 mm 4 mps 753 mmHg 63%
    19:00 +12°C° 0 mm 3 mps 754 mmHg 65%
    20:00 +11°C° 0 mm 3 mps 754 mmHg 70%
    21:00 +10°C° 0 mm 3 mps 755 mmHg 74%
    22:00 +8°C° 0 mm 3 mps 755 mmHg 79%
    23:00 +8°C° 0 mm 3 mps 756 mmHg 82%
    Show more